SERVIS 2 DEB, 43393

Orbit data source: Space-Track

SERVIS 2 DEB, 43393 is space debris in SSO originally from a launch on Wed, 02 Jun 2010 UTC launched from the Plesetsk Missile And Space Complex (PKMTR). Debris objects in space refer to the collection of defunct objects orbiting the Earth. Examples of debris include non-operational satellites, rocket bodies, and fragments generated from explosions, collisions, or faulty payload assembly.

Loading next visibility...
Identifier
43393, 2010-023C
Orbit
SSO
Country
Flag of CISCIS
Related business
Manufacturer
MELCO
Mission
Spacecraft
Bus & Motor
Unknown
Mass
Unknown
Launch date (UTC)
2010-06-02 (16 years ago)
Launch vehicle
Unknown
Launch site
Plesetsk Missile And Space Complex (PKMTR)
Object type
Payload
Rocket body
Debris
Shape & HBR
Unknown shape, 0.1 m
Radar Cross Section
Small (<0.1 m²)

Expand to show TLE details & history
Last TLE update: 9 hours ago

TLE from 9 hours ago
0 SERVIS 2 DEB
1 43393U 10023C   25351.88398321  .00004554  00000-0  76735-2 0  9994
2 43393 100.5892 326.2854 0022597 358.3784   1.7268 13.46130988586086
Epoch: 2025-12-17T21:12Z
TLE epoch observation values (Epoch: 2025-12-17T21:12:56.149Z)
Latitude
-0.00004°
Longitude
-78.69599°
Altitude
1,072.413 km
Speed
7.324 km/s
True Right ascension
21h 45m 08s
True Declination
0° 00' 00"
Sunlit
Object was in daylight at epoch
Visualization orbit readout
Latitude
Unknown
Longitude
Unknown
Altitude
Unknown
Speed
Unknown
Apparent Right ascension
Unknown
Apparent Declination
Unknown
Sunlit
N/A
Visualization observer readout
Local Sidereal Time
05:22:10
Azimuth
Unknown
Elevation
Unknown
Doppler factor
Unknown
Orbital elements
Apogee altitude
1,100.744 km
Perigee altitude
1,067.02 km
Semi-major axis
7,462.019 km
Eccentricity
0.00226
Inclination
100.5892°
RAAN
326.2854°
Arg. of periapsis
358.3784°
True anomaly
1.73463°
Mean anomaly
1.7268°
Eccentric anomaly
1.73071°
Mean motion
3.36712 °/min
Orbital period
106.92 mins
BSTAR
0.0076735
Loading maneuver chart data...
Computing Atmospheric mass density...
Loading historical data...
Loading historical data...
Loading historical data...
Loading historical data...
Loading historical data...
Loading historical data...
Loading historical data...
Other satellites on launch #23 in the year 2010 (2010-06-02 UTC)

Documentation

Showing up to 5 results
|